Regional Weather Roundup
Issued by NWS

Home | Current Version | Previous Version | Graphics & Text | Print | Product List | Glossary On
Versions: 1 2 3 4 5 6 7 8 9 10 11 12 13 14 15 16 17 18 19 20 21 22 23 24 25 26 27 28 29 30 31 32 33 34 35 36 37 38 39 40 41 42 43 44 45 46 47 48 49 50
000
ASUS43 KLOT 250210
RWRIL

ILLINOIS REGIONAL WEATHER ROUNDUP
NATIONAL WEATHER SERVICE CHICAGO/ROMEOVILLE IL
800 PM CST WED DEC 24 2014

NOTE: "FAIR" INDICATES FEW OR NO CLOUDS BELOW 12,000 FEET WITH NO
SIGNIFICANT WEATHER AND/OR OBSTRUCTIONS TO VISIBILITY.

* THESE STATIONS ARE NOT UNDER NWS QUALITY CONTROL. THEY ALSO MAY NOT
  REPORT WEATHER SUCH AS PRECIPITATION OR FOG.

ILZ001-002-007-009-015-016-024-250300-
NORTHWEST ILLINOIS

CITY           SKY/WX    TMP DP  RH WIND       PRES   REMARKS
MOLINE         CLOUDY    37  30  75 W13G22    29.68R WCI  29
STERLING*      CLOUDY    36  30  80 NW13      29.63S WCI  27
SAVANNA*       CLOUDY    37  32  82 W7        29.64R WCI  32
$$

ILZ003-004-008-010-011-017-018-250300-
NORTH CENTRAL ILLINOIS

CITY           SKY/WX    TMP DP  RH WIND       PRES   REMARKS
ROCKFORD       LGT RAIN  35  32  88 NW12      29.61R WCI  27
FREEPORT*      CLOUDY    34  32  92 W13       29.62R WCI  25
ROCHELLE*      CLOUDY    34  32  92 W15G21    29.61R WCI  25
DE KALB*       CLOUDY    33  32  96 W13G18    29.59R WCI  24
PERU*          CLOUDY    37  34  90 W13       29.64R WCI  28
$$

ILZ005-006-012>014-019>023-250300-
NORTHEAST ILLINOIS

CITY           SKY/WX    TMP DP  RH WIND       PRES   REMARKS
CHICAGO-OHARE  DRIZZLE   36  32  85 W14       29.54R WCI  27
CHICAGO-MIDWAY CLOUDY    38  34  85 W10       29.56R WCI  31
AURORA         CLOUDY    36  32  85 W16       29.59R WCI  26
LANSING*       DRIZZLE   36  33  90 W14G20    29.57R WCI  27
JOLIET*        CLOUDY    35  33  92 W7        29.59S WCI  29
WAUKEGAN       CLOUDY    36  32  85 W8        29.52R WCI  30
DUPAGE AIRPORT CLOUDY    36  32  85 W10       29.56R WCI  28
KANKAKEE*      CLOUDY    36  34  93 W15       29.61R WCI  26
WHEELING       LGT RAIN  37  33  85 W9        29.56R WCI  30
MORRIS*        CLOUDY    36  35  96 W12       29.60R WCI  27
ROMEOVILLE*    CLOUDY    35  34  98 W12       29.58S WCI  27
NORTHERLY ISL    N/A     37  33  85 W7          N/A  WCI  32
$$

LMZ740>746-250300-
SOUTHERN LAKE MICHIGAN

STATION/POSITION SKY/WX   TEMP    WIND        PRES    VSBY  WAVE
                          AIR SEA DIR/SP/G                  HT/PER
                          (F)     (DEG/KT/KT) (MB)    (MI)  (FT/S)
WAUKEGAN HARBOR            37                   N/A
HARRISON CRIB              37     270/ 13/ 15   N/A
BURNHAM HARBOR             37     270/  7/ 16   N/A
CALUMET HARBOR             37     240/  7/ 13 1000.0R
MICHIGAN CITY              37     220/ 20/ 22   N/A
$$

ILZ025>027-034>036-040-047-049-050-058-095>099-250300-
WEST-CENTRAL ILLINOIS

CITY           SKY/WX    TMP DP  RH WIND       PRES   REMARKS
QUINCY         CLOUDY    36  30  79 W12       29.76R WCI  28
GALESBURG*     CLOUDY    35  33  90 W16       29.70R WCI  25
MACOMB*        CLOUDY    36  32  85 W17       29.74S WCI  26
JACKSONVILLE*  CLOUDY    38  33  82 W15       29.76R WCI  30
PITTSFIELD*    CLOUDY    38  32  78 W12G17    29.78R WCI  30
$$

ILZ028>032-037-038-041>044-048-051>054-059>061-250300-
CENTRAL ILLINOIS

CITY           SKY/WX    TMP DP  RH WIND       PRES   REMARKS
PONTIAC        CLOUDY    37  35  92 W14       29.65R WCI  28
BLOOMINGTON    LGT RAIN  36  34  92 W10       29.68R WCI  28
DECATUR        CLOUDY    37  33  85 W13       29.72R WCI  29
PEORIA         CLOUDY    38  33  82 W9        29.69R WCI  31
LACON*         CLOUDY    37  32  84 W10G17    29.66R WCI  29
LINCOLN*       CLOUDY    38  34  86 W9        29.71R WCI  31
SPRINGFIELD    CLOUDY    37  34  89 W14       29.74R WCI  28
TAYLORVILLE    CLOUDY    36  34  93 W12G18    29.74R WCI  27
$$

ILZ033-039-045-046-055>057-062-063-250300-
EAST-CENTRAL ILLINOIS

CITY           SKY/WX    TMP DP  RH WIND       PRES   REMARKS
CHAMPAIGN      CLOUDY    36  33  89 W16       29.68R WCI  26
DANVILLE*      MIX PCPN  36  33  92 W15G23    29.63R WCI  26
RANTOUL*       CLOUDY    37  35  90 W14       29.66R WCI  29
MATTOON        CLOUDY    36  34  92 W10       29.71R WCI  28
PARIS*         CLOUDY    37  35  94 W13       29.71R WCI  28
$$

ILZ079-100>102-250300-
SOUTHWEST ILLINOIS

CITY           SKY/WX    TMP DP  RH WIND       PRES   REMARKS
ALTON          CLOUDY    37  34  87 W14       29.80R WCI  29
BELLEVILLE     CLOUDY    38  36  91 W9        29.81R WCI  32
CAHOKIA*       CLOUDY    39  34  82 W9        29.82R WCI  33
SPARTA*        DRIZZLE   37  34  90 W6        29.83R WCI  32
$$

ILZ064>066-069>071-074>076-080>082-084>086-088>090-092>094-250300-
SOUTH-CENTRAL ILLINOIS

CITY           SKY/WX    TMP DP  RH WIND       PRES   REMARKS
CARBONDALE     LGT RAIN  39  34  82 W9        29.84R WCI  33
CAIRO*         CLOUDY    43  37  80 SW7       29.87R
EFFINGHAM*     CLOUDY    37  33  85 SW12      29.77R WCI  29
MARION         CLOUDY    39  36  87 W6        29.84R WCI  35
MT. VERNON     CLOUDY    37  32  81 W6        29.81R WCI  33
CENTRALIA*     CLOUDY    37  33  87 W9        29.80R WCI  30
SALEM*         CLOUDY    39  35  85 W10       29.79R WCI  32
METROPOLIS*    CLOUDY    41  38  87 W5        29.85R
$$

ILZ067-068-072-073-078-083-087-091-250300-
SOUTHEAST ILLINOIS

CITY           SKY/WX    TMP DP  RH WIND       PRES   REMARKS
LAWRENCEVILLE  CLOUDY    39  36  89 W10       29.76R WCI  32
FLORA*         MOCLDY    37  34  87 W14       29.79R WCI  29
FAIRFIELD*     CLOUDY    38  35  89 W6        29.79R WCI  34
HARRISBURG*    CLOUDY    39  36  88 W9        29.84R WCI  33
ROBINSON*      CLOUDY    38  35  87 W21       29.76R WCI  28
CARMI*         CLOUDY    40  39  96 W12       29.81R
$$

ABBREVIATIONS USED IN REMARKS
   TC - TEMPERATURE IN CELSIUS
  WCI - WIND CHILL INDEX
   HX - HEAT INDEX
  VSB - VISIBILITY
$$




USA.gov is the U.S. government's official web portal to all federal, state and local government web resources and services.